| time (UTC) | temp F | wind direction | speed MPH | gust MPH | rain 1hr in | rain 24hr in | rain mn in | humidity % | barometer mb |
| 20260503044504 | 73 | 12 | 1.0 | 1.0 | 0.00 | 0.00 | 0.00 | 88 | 1019.0 |
| 20260503043503 | 73 | 12 | 1.0 | 1.0 | 0.00 | 0.00 | 0.00 | 88 | 1019.0 |
| 20260503042501 | 73 | 12 | 1.0 | 1.0 | 0.00 | 0.00 | 0.00 | 88 | 1019.0 |
| 20260503041500 | 73 | 12 | 1.0 | 1.0 | 0.00 | 0.00 | 0.00 | 88 | 1018.0 |
| 20260503040459 | 73 | 12 | 1.0 | 1.0 | 0.00 | 0.00 | 0.00 | 88 | 1018.0 |
| 20260503035458 | 73 | 12 | 1.0 | 1.0 | 0.00 | 0.00 | 0.00 | 88 | 1019.0 |
| 20260503034456 | 73 | 12 | 1.0 | 1.0 | 0.00 | 0.00 | 0.00 | 88 | 1019.0 |
| 20260503033455 | 73 | 12 | 1.0 | 1.0 | 0.00 | 0.00 | 0.00 | 88 | 1019.0 |
| 20260503032453 | 73 | 12 | 1.0 | 1.0 | 0.00 | 0.00 | 0.00 | 88 | 1018.0 |
| 20260503031452 | 73 | 12 | 1.0 | 1.0 | 0.00 | 0.00 | 0.00 | 88 | 1018.0 |
| 20260503030450 | 73 | 12 | 1.0 | 1.0 | 0.00 | 0.00 | 0.00 | 88 | 1018.0 |
| 20260503025448 | 73 | 12 | 1.0 | 1.0 | 0.00 | 0.00 | 0.00 | 88 | 1019.0 |
| 20260503024446 | 73 | 12 | 1.0 | 1.0 | 0.00 | 0.00 | 0.00 | 88 | 1019.0 |
| 20260503023445 | 73 | 12 | 1.0 | 1.0 | 0.00 | 0.00 | 0.00 | 88 | 1019.0 |
| 20260503022444 | 73 | 12 | 1.0 | 1.0 | 0.00 | 0.00 | 0.00 | 88 | 1018.0 |
| 20260503021442 | 73 | 12 | 1.0 | 1.0 | 0.00 | 0.00 | 0.00 | 88 | 1018.0 |
| 20260503020441 | 73 | 12 | 1.0 | 1.0 | 0.00 | 0.00 | 0.00 | 88 | 1018.0 |
| 20260503015439 | 73 | 12 | 1.0 | 1.0 | 0.00 | 0.00 | 0.00 | 88 | 1018.0 |
| 20260503014438 | 73 | 12 | 1.0 | 1.0 | 0.00 | 0.00 | 0.00 | 88 | 1018.0 |
| 20260503013437 | 73 | 12 | 1.0 | 1.0 | 0.00 | 0.00 | 0.00 | 88 | 1018.0 |
| 20260503012435 | 73 | 66 | 0.0 | 2.0 | 0.00 | 0.00 | 0.00 | 88 | 1018.0 |
| 20260503011433 | 73 | 66 | 0.0 | 2.0 | 0.00 | 0.00 | 0.00 | 88 | 1018.0 |
| 20260503010431 | 73 | 66 | 0.0 | 2.0 | 0.00 | 0.00 | 0.00 | 88 | 1018.0 |
| 20260503005430 | 73 | 66 | 0.0 | 2.0 | 0.00 | 0.00 | 0.00 | 88 | 1018.0 |
| 20260503004429 | 74 | 66 | 0.0 | 2.0 | 0.00 | 0.00 | 0.00 | 88 | 1017.0 |
| 20260503003427 | 75 | 85 | 1.0 | 1.0 | 0.00 | 0.00 | 0.00 | 85 | 1017.0 |
| 20260503002426 | 75 | 85 | 1.0 | 1.0 | 0.00 | 0.00 | 0.00 | 85 | 1016.0 |
| 20260503001425 | 75 | 85 | 1.0 | 1.0 | 0.00 | 0.00 | 0.00 | 85 | 1016.0 |
| 20260503000415 | 75 | 85 | 1.0 | 1.0 | 0.00 | 0.00 | 0.00 | 85 | 1016.0 |
| 20260502235410 | 75 | 85 | 1.0 | 1.0 | 0.00 | 0.00 | 0.00 | 85 | 1016.0 |
| 20260502234409 | 75 | 85 | 1.0 | 2.0 | 0.00 | 0.00 | 0.00 | 85 | 1016.0 |
| 20260502233407 | 77 | 109 | 1.0 | 3.0 | 0.00 | 0.00 | 0.00 | 79 | 1016.0 |
| 20260502232406 | 77 | 109 | 1.0 | 3.0 | 0.00 | 0.00 | 0.00 | 79 | 1016.0 |
| 20260502231405 | 77 | 109 | 1.0 | 3.0 | 0.00 | 0.00 | 0.00 | 79 | 1016.0 |
| 20260502230403 | 77 | 109 | 1.0 | 3.0 | 0.00 | 0.00 | 0.00 | 79 | 1016.0 |
| 20260502225402 | 77 | 109 | 1.0 | 3.0 | 0.00 | 0.00 | 0.00 | 79 | 1016.0 |
| 20260502224401 | 77 | 109 | 2.0 | 3.0 | 0.00 | 0.00 | 0.00 | 79 | 1016.0 |
| 20260502223359 | 79 | 115 | 3.0 | 4.0 | 0.00 | 0.00 | 0.00 | 67 | 1016.0 |
| 20260502222358 | 79 | 115 | 3.0 | 4.0 | 0.00 | 0.00 | 0.00 | 67 | 1015.0 |
| 20260502221357 | 79 | 115 | 3.0 | 4.0 | 0.00 | 0.00 | 0.00 | 67 | 1015.0 |
| 20260502220355 | 79 | 115 | 3.0 | 4.0 | 0.00 | 0.00 | 0.00 | 67 | 1015.0 |
| 20260502215353 | 79 | 115 | 3.0 | 4.0 | 0.00 | 0.00 | 0.00 | 67 | 1015.0 |
| 20260502214352 | 79 | 115 | 3.0 | 4.0 | 0.00 | 0.00 | 0.00 | 67 | 1015.0 |
| 20260502213351 | 79 | 115 | 3.0 | 4.0 | 0.00 | 0.00 | 0.00 | 67 | 1015.0 |
| 20260502212349 | 79 | 115 | 3.0 | 4.0 | 0.00 | 0.00 | 0.00 | 67 | 1015.0 |
| 20260502211348 | 79 | 115 | 3.0 | 4.0 | 0.00 | 0.00 | 0.00 | 67 | 1015.0 |
| 20260502210347 | 79 | 115 | 3.0 | 4.0 | 0.00 | 0.00 | 0.00 | 67 | 1015.0 |
| 20260502205345 | 79 | 115 | 3.0 | 4.0 | 0.00 | 0.00 | 0.00 | 67 | 1015.0 |
| 20260502204344 | 79 | 115 | 3.0 | 4.0 | 0.00 | 0.00 | 0.00 | 67 | 1015.0 |
| 20260502203343 | 79 | 115 | 3.0 | 4.0 | 0.00 | 0.00 | 0.00 | 67 | 1015.0 |
| 20260502202341 | 79 | 115 | 3.0 | 4.0 | 0.00 | 0.00 | 0.00 | 67 | 1015.0 |
| 20260502201339 | 79 | 115 | 3.0 | 4.0 | 0.00 | 0.00 | 0.00 | 67 | 1015.0 |
| 20260502200338 | 79 | 115 | 3.0 | 4.0 | 0.00 | 0.00 | 0.00 | 67 | 1015.0 |
| 20260502195337 | 79 | 115 | 3.0 | 4.0 | 0.00 | 0.00 | 0.00 | 67 | 1015.0 |
| 20260502194335 | 79 | 115 | 3.0 | 4.0 | 0.00 | 0.00 | 0.00 | 67 | 1015.0 |
| 20260502193334 | 79 | 115 | 3.0 | 4.0 | 0.00 | 0.00 | 0.00 | 67 | 1015.0 |
| 20260502192333 | 79 | 115 | 3.0 | 4.0 | 0.00 | 0.00 | 0.00 | 67 | 1015.0 |
| 20260502191331 | 79 | 115 | 3.0 | 4.0 | 0.00 | 0.00 | 0.00 | 67 | 1015.0 |
| 20260502190330 | 79 | 115 | 3.0 | 4.0 | 0.00 | 0.00 | 0.00 | 67 | 1015.0 |
| 20260502185328 | 79 | 115 | 3.0 | 4.0 | 0.00 | 0.00 | 0.00 | 67 | 1015.0 |
| 20260502184327 | 79 | 115 | 3.0 | 4.0 | 0.00 | 0.00 | 0.00 | 67 | 1015.0 |
| 20260502183326 | 79 | 115 | 3.0 | 4.0 | 0.00 | 0.00 | 0.00 | 67 | 1015.0 |
| 20260502182325 | 79 | 115 | 3.0 | 4.0 | 0.00 | 0.00 | 0.00 | 67 | 1016.0 |
| 20260502181323 | 79 | 115 | 3.0 | 4.0 | 0.00 | 0.00 | 0.00 | 67 | 1016.0 |
| 20260502180322 | 79 | 115 | 3.0 | 4.0 | 0.00 | 0.00 | 0.00 | 67 | 1016.0 |
| 20260502170313 | 79 | 115 | 3.0 | 4.0 | 0.00 | 0.00 | 0.00 | 67 | 1017.0 |
| 20260502164310 | 79 | 115 | 3.0 | 4.0 | 0.00 | 0.00 | 0.00 | 67 | 1017.0 |
| 20260502163308 | 79 | 115 | 3.0 | 4.0 | 0.00 | 0.00 | 0.00 | 67 | 1017.0 |
| 20260502162307 | 79 | 115 | 3.0 | 4.0 | 0.00 | 0.00 | 0.00 | 67 | 1017.0 |
| 20260502161306 | 79 | 115 | 3.0 | 4.0 | 0.00 | 0.00 | 0.00 | 67 | 1017.0 |
| 20260502160304 | 79 | 115 | 3.0 | 4.0 | 0.00 | 0.00 | 0.00 | 67 | 1017.0 |
| 20260502152258 | 79 | 115 | 3.0 | 4.0 | 0.00 | 0.00 | 0.00 | 67 | 1017.0 |
| 20260502151257 | 79 | 115 | 3.0 | 4.0 | 0.00 | 0.00 | 0.00 | 67 | 1017.0 |
| 20260502150256 | 79 | 115 | 3.0 | 4.0 | 0.00 | 0.00 | 0.00 | 67 | 1017.0 |
| 20260502130239 | 73 | 90 | 1.0 | 3.0 | 0.00 | 0.00 | 0.00 | 81 | 1017.0 |
| 20260502123235 | 69 | 55 | 1.0 | 3.0 | 0.00 | 0.00 | 0.00 | 90 | 1017.0 |
| 20260502122234 | 69 | 55 | 1.0 | 3.0 | 0.00 | 0.00 | 0.00 | 90 | 1017.0 |
| 20260502121233 | 69 | 55 | 1.0 | 3.0 | 0.00 | 0.00 | 0.00 | 90 | 1017.0 |
| 20260502120231 | 69 | 55 | 1.0 | 3.0 | 0.00 | 0.00 | 0.00 | 90 | 1017.0 |
| 20260502115230 | 69 | 55 | 1.0 | 3.0 | 0.00 | 0.00 | 0.00 | 90 | 1017.0 |
| 20260502114229 | 69 | 55 | 2.0 | 3.0 | 0.00 | 0.00 | 0.00 | 90 | 1017.0 |
| 20260502113227 | 66 | 13 | 1.0 | 1.0 | 0.00 | 0.00 | 0.00 | 96 | 1017.0 |
| 20260502112225 | 66 | 13 | 1.0 | 1.0 | 0.00 | 0.00 | 0.00 | 96 | 1016.0 |
| 20260502111224 | 66 | 13 | 1.0 | 1.0 | 0.00 | 0.00 | 0.00 | 96 | 1016.0 |
| 20260502110222 | 66 | 13 | 1.0 | 1.0 | 0.00 | 0.00 | 0.00 | 96 | 1016.0 |
| 20260502105221 | 66 | 13 | 1.0 | 1.0 | 0.00 | 0.00 | 0.00 | 96 | 1017.0 |
| 20260502104220 | 66 | 13 | 1.0 | 1.0 | 0.00 | 0.00 | 0.00 | 96 | 1017.0 |
| 20260502103218 | 66 | 13 | 1.0 | 1.0 | 0.00 | 0.00 | 0.00 | 96 | 1017.0 |
| 20260502102217 | 66 | 13 | 1.0 | 1.0 | 0.00 | 0.00 | 0.00 | 96 | 1016.0 |
| 20260502101216 | 66 | 13 | 1.0 | 1.0 | 0.00 | 0.00 | 0.00 | 96 | 1016.0 |
| 20260502100214 | 66 | 13 | 1.0 | 1.0 | 0.00 | 0.00 | 0.00 | 96 | 1017.0 |
| 20260502091207 | 73 | 39 | 1.0 | 1.0 | 0.00 | 0.00 | 0.00 | 81 | 1016.0 |
| 20260502090204 | 73 | 39 | 1.0 | 1.0 | 0.00 | 0.00 | 0.00 | 81 | 1016.0 |
| 20260502071148 | 73 | 39 | 1.0 | 1.0 | 0.00 | 0.00 | 0.00 | 81 | 1015.0 |
| 20260502070145 | 73 | 39 | 1.0 | 1.0 | 0.00 | 0.00 | 0.00 | 81 | 1016.0 |
| 20260502065143 | 73 | 39 | 1.0 | 1.0 | 0.00 | 0.00 | 0.00 | 81 | 1016.0 |
| 20260502064142 | 73 | 39 | 1.0 | 1.0 | 0.00 | 0.00 | 0.00 | 81 | 1016.0 |
| 20260502063141 | 73 | 39 | 1.0 | 1.0 | 0.00 | 0.00 | 0.00 | 81 | 1016.0 |
| 20260502062139 | 73 | 39 | 1.0 | 1.0 | 0.00 | 0.00 | 0.00 | 81 | 1016.0 |
| 20260502061138 | 73 | 39 | 1.0 | 1.0 | 0.00 | 0.00 | 0.00 | 81 | 1016.0 |
| 20260502060136 | 73 | 39 | 1.0 | 1.0 | 0.00 | 0.00 | 0.00 | 81 | 1016.0 |
| 20260502055133 | 73 | 39 | 1.0 | 1.0 | 0.00 | 0.00 | 0.00 | 81 | 1016.0 |
| 20260502054130 | 73 | 39 | 1.0 | 1.0 | 0.00 | 0.00 | 0.00 | 81 | 1016.0 |
| 20260502053129 | 73 | 39 | 1.0 | 1.0 | 0.00 | 0.00 | 0.00 | 81 | 1016.0 |
| 20260502052128 | 73 | 39 | 1.0 | 1.0 | 0.00 | 0.00 | 0.00 | 81 | 1016.0 |
| 20260502051126 | 73 | 39 | 1.0 | 1.0 | 0.00 | 0.00 | 0.00 | 81 | 1016.0 |
| 20260502050125 | 73 | 39 | 1.0 | 1.0 | 0.00 | 0.00 | 0.00 | 81 | 1016.0 |
| 20260502045124 | 73 | 39 | 1.0 | 1.0 | 0.00 | 0.00 | 0.00 | 81 | 1016.0 |